This is the latest recevied weather packets stored in our database for station/object K0CVS. If no packets are shown the sender has not sent any weather packets the latest 10 day(s).
| Time | Temp. | Humidity | Pressure | Rain* | Wind** | Luminosity | Snow |
|---|---|---|---|---|---|---|---|
| 1777512884 | 12.78° C | 61% | 1018.9 hPa | 0 mm | - | 0 W/m² | - |
| 1777512581 | 12.78° C | 60% | 1018.9 hPa | 0 mm | - | 0 W/m² | - |
| 1777512278 | 12.78° C | 59% | 1018.7 hPa | 0 mm | - | 0 W/m² | - |
| 1777511975 | 13.33° C | 58% | 1018.6 hPa | 0 mm | - | 0 W/m² | - |
| 1777511673 | 13.33° C | 57% | 1018.5 hPa | 0 mm | - | 1 W/m² | - |
| 1777511371 | 13.33° C | 56% | 1018.6 hPa | 0 mm | - | 1 W/m² | - |
| 1777511066 | 13.89° C | 54% | 1018.4 hPa | 0 mm | - | 3 W/m² | - |
| 1777510762 | 13.89° C | 52% | 1018.4 hPa | 0 mm | - | 4 W/m² | - |
| 1777510460 | 13.89° C | 53% | 1018.4 hPa | 0 mm | - | 5 W/m² | - |
| 1777510155 | 14.44° C | 53% | 1018.1 hPa | 0 mm | - | 6 W/m² | - |
| 1777509853 | 14.44° C | 52% | 1018.4 hPa | 0 mm | - | 8 W/m² | - |
| 1777509553 | 14.44° C | 51% | 1018.2 hPa | 0 mm | - | 10 W/m² | - |
| 1777509250 | 15° C | 50% | 1018.2 hPa | 0 mm | - | 12 W/m² | - |
| 1777508947 | 15° C | 49% | 1018.3 hPa | 0 mm | - | 17 W/m² | - |
| 1777508644 | 15° C | 49% | 1018.2 hPa | 0 mm | - | 17 W/m² | - |
| 1777508341 | 15° C | 48% | 1017.9 hPa | 0 mm | - | 21 W/m² | - |
| 1777508038 | 15° C | 48% | 1018.2 hPa | 0 mm | - | 22 W/m² | - |
| 1777507735 | 15° C | 48% | 1018.1 hPa | 0 mm | - | 26 W/m² | - |
| 1777507432 | 15° C | 47% | 1018.1 hPa | 0 mm | - | 28 W/m² | - |
| 1777507129 | 15° C | 47% | 1018.2 hPa | 0 mm | - | 33 W/m² | - |
| 1777506827 | 15° C | 47% | 1018.3 hPa | 0 mm | - | 37 W/m² | - |
| 1777506524 | 15° C | 48% | 1018.3 hPa | 0 mm | - | 36 W/m² | - |
| 1777506218 | 15° C | 48% | 1018.2 hPa | 0 mm | - | 39 W/m² | - |
| 1777505916 | 15° C | 48% | 1018.2 hPa | 0 mm | - | 38 W/m² | - |
| 1777505611 | 15° C | 47% | 1018.3 hPa | 0 mm | - | 42 W/m² | - |
* Rain latest hour (hover to see other rain measurements)
** Current wind speed in m/s (hover to see current wind gust speed)